Stations météo

Publicité
Lyon/Bron, France (7480): Température de l'air & dewpoint: 15.10.2017 19:00:00 - 21.10.2017 19:00:00 (CEST)Lyon/Bron, France (7480): Température de l'air 5cm: 15.10.2017 19:00:00 - 21.10.2017 19:00:00 (CEST)Lyon/Bron, France (7480): Température de l'air -20cm: 15.10.2017 19:00:00 - 21.10.2017 19:00:00 (CEST)Lyon/Bron, France (7480): Vitesse du vent & gusts: 15.10.2017 19:00:00 - 21.10.2017 19:00:00 (CEST)Lyon/Bron, France (7480): Direction du vent: 15.10.2017 19:00:00 - 21.10.2017 19:00:00 (CEST)Lyon/Bron, France (7480): reduced air pressure: 15.10.2017 19:00:00 - 21.10.2017 19:00:00 (CEST)Lyon/Bron, France (7480): visibility: 15.10.2017 19:00:00 - 21.10.2017 19:00:00 (CEST)Lyon/Bron, France (7480): Ensoleillement: 15.10.2017 19:00:00 - 21.10.2017 19:00:00 (CEST)Lyon/Bron, France (7480): Quantités de précipitations: 15.10.2017 19:00:00 - 21.10.2017 19:00:00 (CEST)
Date & Time tt [°C] td [°C] tt 5cm [°C] tt -20cm [°C] ff [km/h] ff [knt] fx [km/h] fx [knt] dd ppp [hPa] vv [km] sd [min] rr [mm]
21.10.2017 19:00:00 15,4 8,6 14,4 17,6 23 13 38 21 NW 1020,9 59 0 0,0
21.10.2017 18:00:00 16,2 8,7 13,2 17,5 26 14 41 22 NW 1019,9 10 0 0,6
21.10.2017 17:00:00 16,5 11,0 14,1 17,3 32 17 46 25 NW 1018,4 49 0 0,4
21.10.2017 16:00:00 22,9 12,5 23,4 17,2 21 12 35 19 S 1016,0 52 7 0,0
21.10.2017 15:00:00 24,0 13,2 24,3 17,0 22 12 36 19 S 1016,5 10 34 0,0
21.10.2017 14:00:00 23,2 13,4 24,3 16,9 22 12 36 19 S 1017,1 60 9 0,0
21.10.2017 13:00:00 22,2 13,3 22,6 16,8 22 12 41 22 S 1018,2 50 23 0,0
21.10.2017 12:00:00 21,5 14,2 21,8 16,8 27 14 42 23 S 1018,5 25 46 0,0
21.10.2017 11:00:00 19,6 14,2 20,0 16,8 25 14 37 20 SSW 1018,7 31 53 0,0
21.10.2017 10:00:00 18,0 13,9 17,3 16,9 18 10 25 13 S 1018,8 24 49 0,0
21.10.2017 09:00:00 16,7 13,6 15,0 17,0 16 9 26 14 SSW 1018,7 10 33 0,0
21.10.2017 08:00:00 16,1 13,6 14,6 17,0 16 9 25 13 S 1018,4 10 0 0,0
21.10.2017 07:00:00 16,4 13,7 14,9 17,1 17 9 29 16 S 1018,3 26 0 0,0
21.10.2017 06:00:00 16,5 13,6 15,1 17,1 21 12 32 18 S 1018,0 28 0 0,0
21.10.2017 05:00:00 17,0 13,9 15,8 17,1 20 11 40 21 S 1018,0 28 0 0,0
21.10.2017 04:00:00 17,4 13,9 16,3 17,2 23 13 37 20 S 1017,9 27 0 0,0
21.10.2017 03:00:00 17,5 13,8 16,6 17,2 23 13 37 20 S 1018,2 27 0 0,0
21.10.2017 02:00:00 18,3 13,8 17,4 17,2 22 12 35 19 S 1018,3 10 0 0,0
21.10.2017 01:00:00 19,2 13,1 18,1 17,2 22 12 37 20 S 1018,0 10 0 0,0
21.10.2017 00:00:00 19,0 12,5 17,8 17,2 11 6 29 16 S 1018,2 10 0 0,0
20.10.2017 23:00:00 19,2 12,7 18,4 17,2 15 8 29 15 S 1017,9 10 0 0,0
20.10.2017 22:00:00 19,6 12,4 18,8 17,2 14 8 34 18 S 1017,8 51 0 0,0
20.10.2017 21:00:00 20,0 12,5 19,2 17,1 19 10 34 18 S 1017,2 53 0 0,0
20.10.2017 20:00:00 20,3 12,3 19,6 17,1 20 11 35 19 S 1017,2 54 0 0,0
20.10.2017 19:00:00 20,6 12,3 20,0 17,0 22 12 34 18 S 1016,9 58 0 0,0
20.10.2017 18:00:00 21,4 12,3 21,0 16,9 22 12 34 19 S 1016,7 60 0 0,0
20.10.2017 17:00:00 21,8 12,1 21,5 16,8 19 10 39 21 S 1016,7 58 1 0,0
20.10.2017 16:00:00 21,7 12,3 22,1 16,8 16 9 38 21 S 1016,8 10 7 0,0
20.10.2017 15:00:00 21,4 12,3 21,0 16,7 17 9 35 19 S 1016,8 48 0 0,0
20.10.2017 14:00:00 20,6 12,3 20,5 16,6 24 13 38 20 S 1017,2 10 0 0,0
20.10.2017 13:00:00 20,0 12,0 19,5 16,6 20 11 41 22 S 1017,3 55 0 0,0
20.10.2017 12:00:00 19,3 11,6 19,0 16,6 24 13 45 24 S 1017,4 10 0 0,0
20.10.2017 11:00:00 18,7 11,5 18,3 16,6 20 11 33 18 S 1017,1 46 0 0,0
20.10.2017 10:00:00 17,2 10,1 16,5 16,7 13 7 21 11 S 1016,4 41 5 0,0
20.10.2017 09:00:00 15,9 9,8 13,5 16,8 12 6 22 12 S 1016,0 40 8 0,0
20.10.2017 08:00:00 15,3 9,6 13,8 16,9 8 4 19 11 S 1015,5 17 0 0,0
20.10.2017 07:00:00 15,9 10,0 14,6 16,9 3 2 34 18 SSE 1015,2 12 0 0,0
20.10.2017 06:00:00 15,7 10,0 14,2 17,0 11 6 24 13 SSE 1014,9 40 0 0,0
20.10.2017 05:00:00 15,5 10,0 14,4 17,1 13 7 21 12 SSE 1014,7 42 0 0,0
20.10.2017 04:00:00 16,2 10,3 12,8 17,2 13 7 29 16 SSE 1014,4 39 0 0,0
20.10.2017 03:00:00 16,1 10,0 13,3 17,3 15 8 31 17 SSE 1014,5 10 0 0,0
20.10.2017 02:00:00 17,1 10,2 9,1 17,5 14 8 27 15 SSW 1014,0 39 0 0,0
20.10.2017 01:00:00 13,5 8,1 9,6 17,5 4 2 10 5 NNE 1013,3 34 0 0,0
20.10.2017 00:00:00 14,7 8,4 11,8 17,7 6 3 14 7 N 1013,5 41 0 0,0
19.10.2017 23:00:00 15,3 8,5 12,1 17,7 0 0 9 5 N 1013,6 44 0 0,0
19.10.2017 22:00:00 16,0 8,5 12,2 17,8 6 3 15 8 SSE 1013,4 46 0 0,0
19.10.2017 21:00:00 16,3 8,3 12,7 17,8 10 5 14 8 SE 1012,8 48 0 0,0
19.10.2017 20:00:00 18,7 7,8 17,2 17,7 9 5 17 9 E 1012,0 43 0 0,0
19.10.2017 19:00:00 20,5 7,5 19,0 17,6 11 6 22 12 ESE 1011,2 53 8 0,0
19.10.2017 18:00:00 23,3 6,5 22,5 17,5 10 5 20 11 SSE 1010,8 56 23 0,0
19.10.2017 17:00:00 23,1 5,5 23,0 17,3 16 9 42 23 S 1010,7 59 19 0,0
19.10.2017 16:00:00 24,4 3,6 24,7 17,1 21 11 43 23 S 1010,4 10 18 0,0
19.10.2017 15:00:00 26,1 3,3 26,6 16,9 18 10 36 19 S 1010,3 45 58 0,0
19.10.2017 14:00:00 25,5 5,6 24,6 16,9 15 8 30 16 S 1010,9 38 41 0,0
19.10.2017 13:00:00 21,8 6,8 20,7 16,8 15 8 26 14 S 1012,3 52 8 0,0
19.10.2017 12:00:00 18,8 9,6 19,6 16,8 8 4 16 8 E 1012,8 10 0 0,0
19.10.2017 11:00:00 18,5 8,5 19,0 16,9 7 4 19 10 SSE 1013,2 44 32 0,0
19.10.2017 10:00:00 18,2 9,3 15,3 16,9 10 5 15 8 ESE 1013,5 43 32 0,0
19.10.2017 09:00:00 15,6 8,8 14,7 17,0 11 6 17 9 SE 1013,5 10 0 0,0
19.10.2017 08:00:00 15,9 9,1 14,9 17,1 11 6 27 14 SSE 1013,0 10 0 0,0
19.10.2017 07:00:00 15,7 9,1 14,3 17,2 16 9 29 16 SE 1012,8 47 0 0,0
19.10.2017 06:00:00 14,6 9,8 11,3 17,3 10 5 16 9 SE 1012,9 44 0 0,0
19.10.2017 05:00:00 14,2 10,0 11,3 17,4 8 4 15 8 E 1013,0 10 0 0,0
19.10.2017 04:00:00 15,2 10,8 13,8 17,4 6 4 16 9 ESE 1013,4 35 0 0,0
19.10.2017 03:00:00 16,7 11,6 15,3 17,5 10 5 23 13 SSE 1013,4 38 0 0,0
19.10.2017 02:00:00 17,7 12,2 16,7 17,5 17 9 29 16 SSE 1013,2 38 0 0,0
19.10.2017 01:00:00 17,7 12,2 15,7 17,6 16 9 29 16 SSE 1013,2 38 0 0,0
19.10.2017 00:00:00 17,3 12,4 15,5 17,7 11 6 24 13 SSE 1013,5 35 0 0,0
18.10.2017 23:00:00 18,4 12,6 17,4 17,6 13 7 27 15 SSE 1014,0 37 0 0,0
18.10.2017 22:00:00 18,6 11,4 17,3 17,6 11 6 42 23 SSE 1013,4 44 0 0,0
18.10.2017 21:00:00 19,6 11,1 18,3 17,6 19 10 36 19 S 1013,1 44 0 0,0
18.10.2017 20:00:00 20,5 10,0 19,7 17,5 10 6 24 13 SSE 1012,8 57 0 0,0
18.10.2017 19:00:00 21,2 8,8 20,4 17,4 14 8 28 15 S 1012,4 60 0 0,0
18.10.2017 18:00:00 21,8 9,0 21,4 17,2 11 6 32 17 SSE 1012,3 52 0 0,0
18.10.2017 17:00:00 22,2 8,7 22,1 17,0 15 8 40 21 S 1012,6 10 41 0,0
18.10.2017 16:00:00 24,2 8,6 26,4 16,7 28 15 44 24 SSW 1012,6 10 60 0,0
18.10.2017 15:00:00 23,8 8,2 26,5 16,5 29 16 50 27 SSW 1013,4 10 60 0,0
18.10.2017 14:00:00 23,3 7,8 25,2 16,3 27 14 50 27 SSW 1014,1 47 58 0,0
18.10.2017 13:00:00 22,4 8,1 24,7 16,2 27 15 51 28 S 1015,0 35 60 0,0
18.10.2017 12:00:00 21,1 7,3 23,4 16,2 28 15 42 23 S 1015,8 57 60 0,0
18.10.2017 11:00:00 19,4 9,3 19,8 16,3 16 9 31 17 S 1016,3 55 60 0,0
18.10.2017 10:00:00 17,1 10,0 15,3 16,4 15 8 24 13 S 1016,8 50 60 0,0
18.10.2017 09:00:00 14,1 10,7 12,7 16,4 10 5 22 12 ESE 1017,2 18 43 0,0
18.10.2017 08:00:00 14,1 10,5 12,3 16,5 16 8 29 16 SE 1016,9 19 0 0,0
18.10.2017 07:00:00 14,6 11,4 12,5 16,6 19 10 28 15 SE 1017,0 19 0 0,0
18.10.2017 06:00:00 14,4 11,5 13,4 16,7 13 7 25 14 SE 1017,8 10 0 0,0
18.10.2017 05:00:00 15,5 11,7 13,5 16,8 19 10 29 16 S 1017,8 24 0 0,0
18.10.2017 04:00:00 14,8 11,6 13,0 16,9 17 9 25 13 SSE 1018,3 22 0 0,0
18.10.2017 03:00:00 14,8 11,2 13,6 17,0 11 6 19 10 SE 1018,9 26 0 0,0
18.10.2017 02:00:00 15,3 10,5 14,1 17,1 13 7 22 12 SSE 1018,8 30 0 0,0
18.10.2017 01:00:00 15,9 9,6 14,3 17,2 13 7 22 12 SE 1018,9 37 0 0,0
18.10.2017 00:00:00 16,8 9,2 15,4 17,3 14 8 27 14 SSE 1018,8 43 0 0,0
17.10.2017 23:00:00 17,4 9,0 15,9 17,3 15 8 25 13 SSE 1018,9 10 0 0,0
17.10.2017 22:00:00 18,0 9,1 15,1 17,4 16 9 27 14 SSE 1018,5 53 0 0,0
17.10.2017 21:00:00 17,6 8,4 15,2 17,3 8 4 27 15 ESE 1018,7 10 0 0,0
17.10.2017 20:00:00 19,3 8,3 17,5 17,2 16 9 24 13 SSE 1018,6 57 0 0,0
17.10.2017 19:00:00 21,1 6,6 18,7 17,1 10 6 31 17 SSE 1018,3 60 42 0,0
17.10.2017 18:00:00 23,9 6,6 23,8 16,8 18 10 32 17 SSE 1017,9 52 60 0,0
17.10.2017 17:00:00 25,2 8,2 25,9 16,6 22 12 37 20 S 1018,3 10 60 0,0
17.10.2017 16:00:00 25,4 8,0 27,0 16,3 22 12 42 23 SSE 1018,9 10 60 0,0
17.10.2017 15:00:00 25,4 7,5 27,7 16,0 24 13 39 21 SSE 1019,6 54 60 0,0
17.10.2017 14:00:00 24,3 9,1 27,0 15,9 19 10 32 17 S 1020,8 60 60 0,0
17.10.2017 13:00:00 20,3 11,5 22,3 15,8 6 3 11 6 W 1022,1 19 60 0,0
17.10.2017 12:00:00 16,6 11,1 19,7 15,8 3 2 10 5 NW 1023,3 13 60 0,0
17.10.2017 11:00:00 15,1 10,9 15,4 16,0 5 3 13 7 - 1024,2 10 60 0,0
17.10.2017 10:00:00 13,1 10,6 10,4 16,1 8 4 11 6 SSW 1024,7 8 60 0,0
17.10.2017 09:00:00 10,5 9,7 6,6 16,3 7 4 9 5 S 1025,1 8 40 0,0
17.10.2017 08:00:00 10,0 9,2 6,0 16,4 2 1 10 5 - 1024,9 8 0 0,0
17.10.2017 07:00:00 9,7 8,8 5,2 16,6 6 3 8 5 SSW 1025,2 10 0 0,0
17.10.2017 06:00:00 9,0 7,3 5,5 16,8 6 3 11 6 S 1025,3 15 0 0,0
17.10.2017 05:00:00 10,0 8,6 5,8 17,0 7 4 9 5 SSE 1025,3 21 0 0,0
17.10.2017 04:00:00 10,0 7,9 6,6 17,1 5 3 7 4 ESE 1025,6 10 0 0,0
17.10.2017 03:00:00 10,2 7,6 6,6 17,3 3 1 8 4 ENE 1025,6 23 0 0,0
17.10.2017 02:00:00 11,9 8,0 7,9 17,4 6 4 8 4 N 1025,7 31 0 0,0
17.10.2017 01:00:00 14,2 8,6 9,4 17,5 6 3 16 9 NNE 1025,3 36 0 0,0
17.10.2017 00:00:00 15,2 8,9 11,6 17,6 12 7 17 9 SE 1025,0 41 0 0,0
16.10.2017 23:00:00 16,7 9,1 13,4 17,7 6 4 16 9 SE 1025,3 45 0 0,0
16.10.2017 22:00:00 18,4 9,5 13,4 17,7 6 4 16 9 S 1024,8 48 0 0,0
16.10.2017 21:00:00 19,7 9,6 16,8 17,7 7 4 43 23 ESE 1024,3 50 0 0,0
16.10.2017 20:00:00 21,5 8,7 19,8 17,6 23 12 37 20 S 1023,7 49 0 0,0
16.10.2017 19:00:00 22,2 8,3 20,8 17,4 17 9 34 18 S 1023,4 52 31 0,0
16.10.2017 18:00:00 24,6 8,1 24,3 17,2 23 13 51 28 S 1023,0 40 60 0,0
16.10.2017 17:00:00 25,6 6,7 26,2 17,0 31 17 59 32 S 1023,1 10 60 0,0
16.10.2017 16:00:00 25,9 6,0 27,4 16,7 36 19 60 32 S 1023,3 32 60 0,0
16.10.2017 15:00:00 25,6 7,7 27,7 16,5 35 19 56 30 S 1023,8 34 60 0,0
16.10.2017 14:00:00 25,1 7,2 27,7 16,3 32 18 56 31 S 1024,5 40 60 0,0
16.10.2017 13:00:00 24,3 9,1 25,6 16,2 28 15 46 25 S 1025,4 46 60 0,0
16.10.2017 12:00:00 21,4 11,4 23,8 16,2 27 15 39 21 S 1025,9 54 60 0,0
16.10.2017 11:00:00 19,5 12,5 20,5 16,2 9 5 27 15 S 1026,4 27 60 0,0
16.10.2017 10:00:00 17,3 12,8 14,6 16,4 16 8 26 14 SSE 1026,3 29 60 0,0
16.10.2017 09:00:00 13,2 12,7 7,0 16,5 0 0 6 3 N 1026,4 7 27 0,0
16.10.2017 08:00:00 11,2 10,3 6,6 16,6 2 1 5 3 NW 1026,1 6 0 0,0
16.10.2017 07:00:00 11,8 10,7 8,0 16,8 0 0 6 3 N 1026,0 10 0 0,0
16.10.2017 06:00:00 11,7 10,4 8,1 16,9 3 1 9 5 NE 1026,1 10 0 0,0
16.10.2017 05:00:00 12,6 11,2 8,4 17,0 6 3 10 6 NE 1026,0 17 0 0,0
16.10.2017 04:00:00 13,9 11,4 10,7 17,1 7 4 10 5 NNE 1026,1 20 0 0,0
16.10.2017 03:00:00 15,2 11,6 12,4 17,2 3 2 15 8 N 1026,4 23 0 0,0
16.10.2017 02:00:00 17,2 12,1 14,4 17,3 9 5 20 11 SE 1026,3 32 0 0,0
16.10.2017 01:00:00 17,5 12,0 14,7 17,3 8 4 18 10 SSE 1026,5 36 0 0,0
16.10.2017 00:00:00 18,1 12,3 15,7 17,4 10 5 28 15 SSE 1026,4 36 0 0,0
15.10.2017 23:00:00 18,7 12,4 16,4 17,4 9 5 22 12 SSE 1026,1 10 0 0,0
15.10.2017 22:00:00 19,1 12,6 16,2 17,4 10 5 22 12 S 1026,0 35 0 0,0
15.10.2017 21:00:00 20,1 12,3 18,1 17,4 14 8 38 21 S 1025,5 35 0 0,0
15.10.2017 20:00:00 21,1 12,0 19,5 17,3 11 6 33 18 S 1025,1 41 0 0,0
15.10.2017 19:00:00 22,3 10,4 20,6 17,1 16 9 34 18 SSE 1024,5 50 36 0,0

tt = Température de l'air
td = dewpoint
tt 5cm = Température de l'air 5cm
tt -20cm = Température de l'air -20cm
ff = Vitesse du vent
fx = gusts
dd = Direction du vent
ppp = reduced air pressure
vv = visibility
sd = Ensoleillement
rr = Quantités de précipitations

stations d'obs. à proximité